Monticello, AR

3:20 AM CDT on September 22, 2017 (GMT -0500)
Monticello Municipal-Ellis

Weather History for KLLQ - April, 2013

Change the Weather History Date:

Monday, April 1, 2013

  Actual Average Record
Temperature  
Mean Temperature 58 °F -  
Max Temperature 75 °F 70 °F 90 °F (1974)
Min Temperature 44 °F 45 °F 31 °F (1987)
Degree Days  
Heating Degree Days 6    
Growing Degree Days 8 (Base 50)    
Moisture  
Dew Point 48 °F    
Average Humidity 83    
Maximum Humidity 100    
Minimum Humidity 41    
Precipitation  
Precipitation 0.00 in - - ()
Sea Level Pressure  
Sea Level Pressure 30.01 in    
Wind  
Wind Speed 1 mph (NW)    
Max Wind Speed 8 mph    
Max Gust Speed -    
Visibility 5 miles    
Events Fog , Rain    
Averages and records for this station are not official NWS values.
T = Trace of Precipitation, MM = Missing Value Source: NWS Daily Summary

Daily Weather History Graph

Daily Weather History Graph

Search for Another Location

Airport or City:

Trip Planner

Search our weather history database for the weather conditions in past years. The results will help you decide how hot, cold, wet, or windy it might be!

Date:

Astronomy

Apr. 01, 2013 Rise Set
Actual Time 6:54 AM CDT 7:27 PM CDT
Civil Twilight 6:29 AM CDT 7:52 PM CDT
Nautical Twilight 5:59 AM CDT 8:22 PM CDT
Astronomical Twilight 5:29 AM CDT 8:52 PM CDT
Moon 12:23 AM CDT (4/1) 10:53 AM CDT (4/1)
Length of Visible Light 13h 23m
Length of Day
12h 33m
Waning Gibbous, 67% of the Moon is Illuminated
Apr 1
Waning Gibbous
Apr 2
Last Quarter
Apr 10
New
Apr 18
First Quarter
Apr 25
Full

Hourly Weather History & Observations

Time (CDT) Temp. Windchill Dew Point Humidity Pressure Visibility Wind Dir Wind Speed Gust Speed Precip Events Conditions
12:20 AM 53.6 °F - 51.8 °F 94% 29.96 in 1.5 mi Calm Calm - N/A   Partly Cloudy
12:24 AM 51.8 °F - 51.8 °F 100% 29.96 in 0.8 mi Calm Calm - N/A   Mist
12:32 AM 51.8 °F - 50.0 °F 94% 29.96 in 1.2 mi Calm Calm - N/A   Partly Cloudy
12:40 AM 51.8 °F - 50.0 °F 94% 29.96 in 1.0 mi Calm Calm - N/A   Mist
12:53 AM 51.1 °F - 50.0 °F 96% 29.97 in 0.5 mi Calm Calm - 0.00 in Fog , Rain Light Rain
1:08 AM 50.0 °F - 48.2 °F 94% 29.97 in 1.2 mi Calm Calm - 0.00 in Rain Light Rain
1:14 AM 50.0 °F - 48.2 °F 94% 29.97 in 3.0 mi Calm Calm - 0.00 in   Partly Cloudy
1:44 AM 48.2 °F - 46.4 °F 93% 29.97 in 2.0 mi WNW 3.5 mph - 0.00 in   Mostly Cloudy
1:48 AM 48.2 °F - 48.2 °F 100% 29.97 in 0.8 mi West 3.5 mph - 0.00 in   Mist
1:53 AM 48.0 °F - 46.9 °F 96% 29.97 in 0.5 mi West 3.5 mph - 0.00 in Fog Fog
2:11 AM 48.2 °F - 46.4 °F 93% 29.97 in 2.0 mi Calm Calm - N/A   Mostly Cloudy
2:15 AM 48.2 °F - 46.4 °F 93% 29.98 in 3.0 mi Calm Calm - N/A   Scattered Clouds
2:27 AM 48.2 °F - 46.4 °F 93% 29.97 in 2.0 mi Calm Calm - N/A   Partly Cloudy
2:46 AM 48.2 °F - 46.4 °F 93% 29.97 in 1.8 mi Calm Calm - N/A   Partly Cloudy
2:51 AM 48.2 °F - 46.4 °F 93% 29.97 in 3.0 mi Calm Calm - N/A   Partly Cloudy
2:53 AM 48.0 °F - 46.9 °F 96% 29.97 in 4.0 mi NW 3.5 mph - N/A   Partly Cloudy
3:25 AM 46.4 °F - 44.6 °F 93% 29.98 in 2.5 mi Calm Calm - N/A   Clear
3:33 AM 48.2 °F - 46.4 °F 93% 29.98 in 4.0 mi Calm Calm - N/A   Clear
3:53 AM 46.0 °F 44.8 °F 45.0 °F 96% 29.98 in 4.0 mi West 3.5 mph - N/A   Clear
4:00 AM 46.4 °F 44.3 °F 44.6 °F 93% 29.98 in 2.5 mi West 4.6 mph - N/A   Scattered Clouds
4:04 AM 46.4 °F 44.3 °F 44.6 °F 93% 29.98 in 1.0 mi West 4.6 mph - N/A   Mist
4:11 AM 46.4 °F 45.2 °F 46.4 °F 100% 29.99 in 0.5 mi West 3.5 mph - N/A Fog Fog
4:53 AM 48.0 °F - 46.9 °F 96% 30.00 in 0.2 mi Calm Calm - N/A Fog Fog
5:53 AM 46.9 °F - 46.0 °F 97% 30.01 in 0.5 mi Calm Calm - N/A Fog Fog
6:28 AM 44.6 °F - 44.6 °F 100% 30.02 in 1.5 mi Calm Calm - N/A   Mostly Cloudy
6:35 AM 44.6 °F - 44.6 °F 100% 30.02 in 2.0 mi Calm Calm - N/A   Scattered Clouds
6:44 AM 44.6 °F 43.1 °F 44.6 °F 100% 30.03 in 8.0 mi WNW 3.5 mph - 0.00 in Rain Light Rain
6:53 AM 46.0 °F - 44.1 °F 93% 30.04 in 9.0 mi Calm Calm - 0.00 in   Clear
7:53 AM 48.0 °F - 48.0 °F 100% 30.08 in 9.0 mi Calm Calm - 0.00 in Rain Light Rain
8:53 AM 57.0 °F - 53.1 °F 87% 30.08 in 10.0 mi Calm Calm - 0.00 in   Clear
10:53 AM 64.9 °F - 54.0 °F 68% 30.10 in 10.0 mi Calm Calm - N/A   Clear
11:53 AM 68.0 °F - 53.1 °F 59% 30.10 in 10.0 mi Variable 3.5 mph - N/A   Clear
12:53 PM 71.1 °F - 51.1 °F 49% 30.09 in 10.0 mi Variable 3.5 mph - N/A   Clear
1:53 PM 72.0 °F - 48.9 °F 44% 30.06 in 10.0 mi Calm Calm - N/A   Mostly Cloudy
2:53 PM 72.0 °F - 50.0 °F 46% 30.05 in 10.0 mi NW 4.6 mph - N/A   Partly Cloudy
3:53 PM 73.9 °F - 48.9 °F 41% 30.03 in 10.0 mi SW 4.6 mph - N/A   Clear
4:53 PM 73.0 °F - 48.0 °F 41% 30.03 in 10.0 mi Calm Calm - N/A   Clear
5:53 PM 73.0 °F - 52.0 °F 48% 30.03 in 10.0 mi NE 5.8 mph - N/A   Overcast
6:53 PM 68.0 °F - 53.1 °F 59% 30.04 in 10.0 mi NE 6.9 mph - N/A   Mostly Cloudy
7:53 PM 66.0 °F - 52.0 °F 60% 30.04 in 10.0 mi Calm Calm - N/A   Mostly Cloudy
8:53 PM 61.0 °F - 52.0 °F 72% 30.06 in 10.0 mi ENE 5.8 mph - N/A   Partly Cloudy
9:53 PM 60.1 °F - 51.1 °F 72% 30.07 in 10.0 mi ENE 8.1 mph - N/A   Clear
10:53 PM 57.0 °F - 50.0 °F 77% 30.08 in 10.0 mi ENE 5.8 mph - N/A   Clear
11:53 PM 55.9 °F - 48.9 °F 77% 30.09 in 10.0 mi ESE 3.5 mph - N/A   Clear